Regional Weather Roundup
Issued by NWS

Home | Current Version | Previous Version | Graphics & Text | Print | Product List | Glossary Off
Versions: 1 2 3 4 5 6 7 8 9 10 11 12 13 14 15 16 17 18 19 20 21 22 23 24 25 26 27 28 29 30 31 32 33 34 35 36 37 38 39 40 41 42 43 44 45 46 47 48 49 50

000
ASUS45 KCYS 181110
RWRWY

WYOMING REGIONAL WEATHER ROUNDUP
NATIONAL WEATHER SERVICE CHEYENNE WY
400 AM MST THU DEC 18 2014

NOTE:  "FAIR" INDICATES FEW OR NO CLOUDS BELOW 12,000 FEET
WITH NO SIGNIFICANT WEATHER AND/OR OBSTRUCTIONS TO VISIBILITY.

WYZ001-181200-
YELLOWSTONE NATIONAL PARK

CITY           SKY/WX    TMP DP  RH WIND       PRES   REMARKS
LK YELLOWSTONE   N/A     21  15  78 VRB3      30.01S
W YELLOWSTONE  NOT AVBL

$$
WYZ002>013-054>058-071-098>099-181200-
NORTHERN WYOMING

CITY           SKY/WX    TMP DP  RH WIND       PRES   REMARKS
JACKSON        CLOUDY    16  14  93 N5        30.03S WCI   9
CODY           FAIR      19  14  79 CALM      29.94S
GREYBULL       FAIR       8   6  92 CALM      30.02F
WORLAND        FAIR       4   0  83 S7        30.01F WCI  -8
SHERIDAN       FAIR      12   8  84 SW3       29.94F
BUFFALO        FAIR      23  16  74 W10       29.95S WCI  12
GILLETTE       FAIR      17  14  88 NE3       29.95R
HULETT           N/A    N/A N/A N/A MISG        N/A
NEWCASTLE      FAIR      10  10 100 S3        29.98F

$$
WYZ014>020-022>026-101>103-181200-
CENTRAL WYOMING

CITY           SKY/WX    TMP DP  RH WIND       PRES   REMARKS
BIG PINEY      FAIR       8   4  83 N8        30.04S WCI  -4
PINEDALE       FAIR      10   9  92 W7        30.04S WCI   0
DUBOIS         CLOUDY    23  16  74 NW10      29.98S WCI  12
LANDER         FAIR      -1  -5  82 N3        29.99R FOG
RIVERTON       HAZE      10   5  80 CALM      30.00S VSB 1/4
CASPER         FAIR      24  16  71 SW9G23    29.96R WCI  14
DOUGLAS        FAIR       5   1  83 CALM      29.97F

$$
WYZ021-027>030-104>119-181200-
SOUTHERN WYOMING

CITY           SKY/WX    TMP DP  RH WIND       PRES   REMARKS
EVANSTON       FAIR      23  20  88 SW3       30.03F
KEMMERER       FAIR      19  18  93 CALM      30.03R
FORT BRIDGER   FAIR      26  23  89 W9        30.06S WCI  17
ROCK SPRINGS   FAIR      18  14  84 SW10      30.03S WCI   6
DIXON          CLOUDY   N/A N/A N/A SE6       30.09F
RAWLINS        FAIR      17  13  84 SW12      30.01F WCI   4
SARATOGA       CLOUDY    16  12  86 CALM      30.03S
LARAMIE        FAIR      10   7  87 CALM      29.96S
CHEYENNE       FAIR      23  15  71 W3        29.97S
TORRINGTON     FOG        8   5  87 NW3       30.00S VSB 1/2
PINE BLUFFS    FAIR      19  16  86 CALM      29.98F

$$


USA.gov is the U.S. government's official web portal to all federal, state and local government web resources and services.